Tracking 22780 objects as of 11-Apr-2021
HD Live streaming from Space Station
objects crossing your sky now

TITAN 3C TRANSTAGE DEB

Track TITAN 3C TRANSTAGE DEB now!


NORAD ID: 43285
Int'l Code: 1969-013F
Perigee: 37,460.0 km
Apogee: 38,219.7 km
Inclination: 3.9 °
Period: 1,541.9 minutes
Semi major axis: 44210 km
RCS: Unknown
Launch date: February 9, 1969
Source: United States (US)
Launch site: AIR FORCE EASTERN TEST RANGE (AFETR)

Note: This is SATELLITE DEBRIS
aabbcc
Your satellite tracking list
Your tracking list is empty




NASA's NSSDC Master Catalog

Two Line Element Set (TLE):
1 43285U 69013F   21099.14080856 -.00000122  00000-0  00000+0 0  9999
2 43285   3.9461 279.6661 0085918 313.0150  45.8573  0.93392099 10409
Source of the keplerian elements: AFSPC